Regional Weather Roundup
Issued by NWS Cleveland, OH

Home | Current Version | Previous Version | Graphics & Text | Print | Product List | Glossary On
Versions: 1 2 3 4 5 6 7 8 9 10 11 12 13 14 15 16 17 18 19 20 21 22 23 24 25 26 27 28 29 30 31 32 33 34 35 36 37 38 39 40 41 42 43 44 45 46 47 48 49 50
000
ASUS41 KCLE 041200
RWRCLE
OHIO REGIONAL WEATHER ROUNDUP
NATIONAL WEATHER SERVICE WILMINGTON, OH
700 AM EST WED MAR 04 2015

NOTE: "FAIR" INDICATES FEW OR NO CLOUDS BELOW 12,000 FEET WITH NO
SIGNIFICANT WEATHER AND/OR OBSTRUCTIONS TO VISIBILITY.

OHZ001>008-015>018-024>027-034-035-043-044-041300-
   NORTHWEST OHIO

CITY           SKY/WX    TMP DP  RH WIND       PRES   REMARKS
DEFIANCE       CLOUDY    32  24  72 NW6       29.92R WCI  26
FINDLAY        CLOUDY    33  27  78 NW7       29.89R WCI  27
TOLEDO EXPRESS CLOUDY    31  24  75 NW5       29.90R WCI  26
TOLEDO EXEC    CLOUDY    32  24  72 NW6       29.92R WCI  26
LIMA           CLOUDY    34  30  85 NW7       29.90R WCI  28
$$

OHZ009>014-019>023-028>033-038-089-041300-
   NORTHEAST OHIO

CITY           SKY/WX    TMP DP  RH WIND       PRES   REMARKS
CLE-HOPKINS    CLOUDY    34  28  79 W7        29.92R WCI  28
CLE-LAKEFRONT  CLOUDY    33  30  88 W8        29.89R WCI  26
CUY CO. ARPT   CLOUDY    34  30  86 NW14      29.89  WCI  24
LORAIN-ELYRIA  CLOUDY    33  29  85 N8        29.89R WCI  26
ASHTABULA      CLOUDY    32  27  81 NW7       29.87R WCI  26
AKRON-CANTON   CLOUDY    34  29  82 W6        29.88R WCI  29
WOOSTER        NOT AVBL
MANSFIELD      CLOUDY    32  30  92 W6        29.86F WCI  26
YOUNGSTOWN     CLOUDY    33  29  85 SW8       29.84S WCI  26
$$

OHZ042-051>053-060>062-070>072-077>081-041300-
  SOUTHWEST OHIO

CITY           SKY/WX    TMP DP  RH WIND       PRES   REMARKS
CINC-COVINGTON LGT RAIN  36  35  96 CALM      29.92R FOG
CINC-LUNKEN    LGT RAIN  34  34 100 SE3       29.95R FOG
HAMILTON       LGT RAIN  35  34  96 CALM      29.94S FOG
DAYTON         NOT AVBL
WRIGHT-PAT AFB NOT AVBL
DAYTON GENERAL CLOUDY    34  33  96 CALM      29.91S FOG
WILMINGTON     LGT RAIN  34  33  96 W3        29.92R FOG
$$

OHZ036-037-039>041-045>050-054>059-063>069-073>076-082>088-041300-
  CENTRAL AND SOUTHEAST OHIO

CITY           SKY/WX    TMP DP  RH WIND       PRES   REMARKS
COLUMBUS       LGT RAIN  34  34 100 W6        29.91R WCI  29
OSU AIRPORT    CLOUDY    33  32  96 SW5       29.91R FOG     WCI  29
BOLTON FIELD   NOT AVBL
RICKENBACK AFB NOT AVBL
NEWARK         LGT RAIN  35  33  92 CALM      29.89F FOG
MARION         CLOUDY    33  29  85 W5        29.90R FOG     WCI  29
LANCASTER      MIX PCPN  35  34  96 CALM      29.91F FOG
ZANESVILLE     LGT RAIN  34  33  96 CALM      29.90R FOG
NEW PHILLY     CLOUDY    34  31  88 CALM      29.90S FOG
$$


USA.gov is the U.S. government's official web portal to all federal, state and local government web resources and services.